Weather in Bolgar

Russia / Republic of Tatarstan     54°58′29″N   49°01′49″E
temp.,
°C
wind,
m/s
gust,
m/s
humid.,
%
clouds,
%
prec.,
mm/h
press.,
hPa
HPBL,
m
20 may, fri
fri2000:00+6w46770 0.0 1010188
03:00+5wnw34805 0.0 1010199
06:00+6nw33785 0.0 1010237
09:00+7nnw337168 0.4 1010624
12:00+8n4567100 1.8 1010645
15:00+9nnw7861100 2.9 10091201
18:00+8n896692 0.4 10101133
21:00+6nnw711758 0.4 1009739
21 may, sat
sat2100:00+5nnw812808 0.1 1008458
03:00+4nnw912855 0.1 1008372
06:00+4nnw811845 0.0 1009530
09:00+4nnw8985100 0.1 1009915
12:00+7nnw8107168 0.3 10081333
15:00+7n7867100 0.6 10081121
18:00+7n566896 0.4 1008882
21:00+6nnw3471100 0.7 1007339
22 may, sun
sun2200:00+5nw457844 0.1 1005266
03:00+4nw568388 0.1 1005316
06:00+4nw57837 0.1 1004409
09:00+6nw5764100 0.3 10021325
12:00+7nw786195 0.4 10021266
15:00+8nw575696 0.7 10011405
18:00+7nw566199 0.1 10011147
21:00+6wnw466740 0.1 1000549
23 may, mon
mon2300:00+5wnw577543 0.0 999351
03:00+3wnw698348 0.0 999410
06:00+4wnw6884100 0.0 999571
09:00+5w7878100 0.1 999965
12:00+6wnw8978100 0.4 10001079
15:00+7wnw6767100 0.8 10011251
18:00+7wnw677288 0.5 1001887
21:00+7w577785 0.5 1002613
24 may, tue
tue2400:00+6w5783100 0.1 1002512
03:00+4w5696100 1.0 1003649
06:00+5w5796100 1.3 1003650
09:00+4w5697100 2.8 1005547
12:00+4wsw5693100 0.5 1007496
15:00+4wnw5593100 0.8 1008541
18:00+6wnw447367 0.1 1008874
21:00+6nw457051 0.1 1009597